Location: Bothwell
(42.3833°S, 147.0000°E)
Time: 04:09:27
(UTC+10:00)

XW-2C - Visible Passes

Search period start: 23 April 2024 00:00
Search period end: 03 May 2024 00:00
Orbit: 442 x 457 km, 97.5° (Epoch: 22 April)

Date Brightness Start Highest point End Pass type
(mag) Time Alt. Az. Time Alt. Az. Time Alt. Az.
23 Apr ? 05:52:13 10° NNE 05:55:30 45° ESE 05:58:51 10° S visible
23 Apr ? 18:46:14 12° SSE 18:49:16 43° E 18:52:35 10° N visible
23 Apr ? 20:20:11 10° SW 20:21:34 12° WSW 20:22:57 10° W visible
24 Apr ? 05:18:20 10° ENE 05:20:37 17° ESE 05:22:56 10° SSE visible
24 Apr ? 18:11:43 10° SE 18:13:55 16° E 18:16:06 10° NE visible
24 Apr ? 19:45:09 21° SSW 19:46:42 30° WSW 19:49:46 10° NW visible
25 Apr ? 06:14:25 10° NNE 06:17:51 87° WNW 06:21:21 10° SSW visible
25 Apr ? 19:10:09 34° SSE 19:11:35 90° N 19:15:02 10° NNW visible
26 Apr ? 05:39:38 10° NE 05:42:40 30° ESE 05:45:46 10° S visible
26 Apr ? 18:34:58 23° ESE 18:36:10 29° E 18:39:13 10° NNE visible
26 Apr ? 20:08:37 17° WSW 20:08:39 17° WSW 20:10:57 10° WNW visible
27 Apr ? 05:06:13 10° E 05:07:36 12° ESE 05:08:59 10° SE visible
27 Apr ? 17:59:44 10° ESE 18:00:30 11° E 18:01:16 10° ENE visible
27 Apr ? 19:33:18 44° WSW 19:33:27 44° WSW 19:36:46 10° NNW visible
28 Apr ? 06:01:04 10° NNE 06:04:27 59° ESE 06:07:53 10° S visible
28 Apr ? 18:57:50 56° E 18:58:00 56° E 19:01:24 10° N visible
29 Apr ? 05:26:28 10° ENE 05:29:06 21° ESE 05:31:46 10° SSE visible
29 Apr ? 18:22:15 19° E 18:22:16 19° E 18:24:50 10° NE visible
29 Apr ? 19:55:53 21° W 19:55:53 21° W 19:57:46 10° NW visible
30 Apr ? 06:22:32 10° N 06:25:56 68° W 06:29:25 10° SSW visible
30 Apr ? 19:20:10 50° NW 19:20:10 50° NW 19:22:50 10° NNW visible
01 May ? 05:47:06 10° NE 05:50:18 37° ESE 05:53:32 10° S visible
01 May ? 18:44:20 31° NE 18:44:20 31° NE 18:46:48 10° NNE visible
02 May ? 05:12:52 10° E 05:14:46 14° ESE 05:16:40 10° SSE visible
02 May ? 18:08:24 12° ENE 18:08:24 12° ENE 18:09:08 10° ENE visible
02 May ? 19:42:01 23° WNW 19:42:01 23° WNW 19:43:35 10° NW visible
